Tracking 19176 objects as of 26-May-2018
HD Live streaming from Space Station
objects crossing your sky now

PALAPA B1

Track PALAPA B1 now!
PALAPA B1 is classified as:


NORAD ID: 14134
Int'l Code: 1983-059C
Perigee: 35,807.1 km
Apogee: 35,850.0 km
Inclination: 14.8 °
Period: 1,437.9 minutes
Semi major axis: 42199 km
RCS: 1.2604 m2 (large)
Launch date: June 18, 1983
Source: Indonesia (INDO)
Launch site: AIR FORCE EASTERN TEST RANGE (AFETR)
aabbcc
Your satellite tracking list
Your tracking list is empty




NASA's NSSDC Master Catalog

Two Line Element Set (TLE):
1 14134U 83059C   18145.55665005 -.00000240 +00000-0 +00000-0 0  9996
2 14134 014.7954 354.3172 0005094 358.9495 007.0944 01.00147758091299
Source of the keplerian elements: AFSPC